Torna al catalogo

COSMOS 1275 DEB

AttivoPO
NORAD 12769·DEBRIS·🇷🇺 Russia

Lanciato Jun 4, 1981 da Plesetsk Cosmodrome

Loading…

Prossimi Passaggi (prossime 24 ore)

TLE

AggiornatoSource: Space-Track

Epoca: Sep 14, 2026, 11:42 UTC

1 12769U 81053DN  26257.48769896  .00000361  00000-0  36094-3 0  9996
2 12769  82.8175  76.6211 0070288 121.3788 268.0089 13.74117498254263

Traccia COSMOS 1275 DEB in tempo reale con AllMySat

Download on the App Store